Regional Weather Roundup
Issued by NWS

Home | Current Version | Previous Version | Graphics & Text | Print | Product List | Glossary On
Versions: 1 2 3 4 5 6 7 8 9 10 11 12 13 14 15 16 17 18 19 20 21 22 23 24 25 26 27 28 29 30 31 32 33 34 35 36 37 38 39 40 41 42 43 44 45 46 47 48 49 50
000
ASUS43 KIND 080159
RWRIN

WEATHER ROUNDUP FOR INDIANA
NATIONAL WEATHER SERVICE INDIANAPOLIS IN
1000 PM EDT TUE JUL 07 2015

NOTE: "FAIR" INDICATES FEW OR NO CLOUDS BELOW 12,000 FEET WITH NO
SIGNIFICANT WEATHER AND/OR OBSTRUCTIONS TO VISIBILITY.

* - STATION DOES NOT REPORT WEATHER SUCH AS PRECIPITATION OR FOG.

+ - STATION NOT QUALITY CONTROLLED BY THE NATIONAL WEATHER SERVICE.
    USE DATA WITH CAUTION...ESPECIALLY DEWPOINT AND RELATIVE
    HUMIDITY OBSERVATIONS.

INZ001>003-010>013-019-020-080300-
NORTHWEST INDIANA

CITY           SKY/WX    TMP DP  RH WIND       PRES   REMARKS
GARY /AIRPORT/ PTCLDY    61  50  67 N14       30.08R
RENSSELAER +   PTCLDY    59  52  77 N6        30.06S

$$

LMZ046-743>745-080300-
SOUTHERN LAKE MICHIGAN

STATION/POSITION TIME  TEMP    WIND        PRES    WAVE
                       AIR SEA DIR/SP/G            HT
                 (UTC) (F)     (DEG/KT/KT) (MB)    (FT)
BURNS HARBOR     0100   62      20/ 16/ 20 1018.3R
MICHIGAN CITY    0100   62     350/ 26/ 31   N/A
5NW MICH CITY    0100   62 65   20/ 19/ 25   N/A     8

$$

INZ004-005-014>016-021>024-080300-
NORTH CENTRAL INDIANA

CITY           SKY/WX    TMP DP  RH WIND       PRES   REMARKS
GOSHEN         CLEAR     60  51  72 NW7       30.03R
SOUTH BEND     CLEAR     58  49  72 N10       30.05R

$$

INZ006>009-017-018-025>027-080300-
NORTHEAST INDIANA

CITY           SKY/WX    TMP DP  RH WIND       PRES   REMARKS
ANGOLA *+      CLOUDY    64  54  68 NE7       30.01R
FORT WAYNE     CLOUDY    65  56  72 NW10      30.01R

$$

INZ028-029-035-036-043>045-051>053-080300-
WEST CENTRAL INDIANA

CITY           SKY/WX    TMP DP  RH WIND       PRES   REMARKS
CRAWFORDSVL +  CLOUDY    60  44  54 N5        30.05R
GREENCASTLE +  CLOUDY    63  46  55 N9        30.05R
LAFAYETTE      PTCLDY    60  49  66 N6        30.05R
TERRE HAUTE    CLOUDY    65  56  72 N12G17    30.03R

$$

INZ030>032-037>040-046>048-054>057-064-065-080300-
CENTRAL INDIANA

CITY           SKY/WX    TMP DP  RH WIND       PRES   REMARKS
GREENWOOD *+   CLOUDY    64  55  72 N5        30.03R
INDIANAPOLIS   CLOUDY    65  54  67 N12       30.02R
-EAGLE CREEK   CLOUDY    64  54  69 N12       30.02R
KOKOMO *+      MOCLDY    61  46  59 NW7       30.03R
MT COMFORT *+  CLOUDY    63 N/A N/A NW7       30.03R
SHELBYVILLE    CLOUDY    67  63  87 NW5       30.01R

$$

INZ033-034-041-042-049-050-058-059-080300-
EAST CENTRAL INDIANA

CITY           SKY/WX    TMP DP  RH WIND       PRES   REMARKS
MUNCIE         CLOUDY    65  60  84 N8        30.01R

$$

INZ060-061-067>069-081>083-085>088-080300-
SOUTHWEST INDIANA

CITY           SKY/WX    TMP DP  RH WIND       PRES   REMARKS
EVANSVILLE     CLOUDY    73  70  90 N7        30.00R
HUNTINGBURG *+ CLOUDY    73  72  94 SW3       30.00R

$$

INZ062-063-066-070>080-084-089>092-080300-
SOUTH CENTRAL AND SOUTHEAST INDIANA

CITY           SKY/WX    TMP DP  RH WIND       PRES   REMARKS
BLOOMINGTON    CLOUDY    66  63  90 N6        30.02R
MADISON *+     CLOUDY    72  70  94 SW3       30.02R
SEYMOUR +      CLOUDY    68  68 100 N10       30.00R

$$




USA.gov is the U.S. government's official web portal to all federal, state and local government web resources and services.